STARLINK-32323, 61677

Orbit data source: Space-Track

STARLINK-32323, 61677 is a payload satellite owned by SpaceX/Seattle (US) in LEO that was launched on Sat, 26 Oct 2024 UTC via an FALCON 9 launch vehicle from the Air Force Eastern Test Range (AFETR). Payload-class satellites include a variety of spacecraft equipped with specific instruments for various scientific and technological missions. These include communications satellites like Starlink; space stations such as the ISS; scientific satellites like the Hubble; Earth observation satellites from companies like Planet Labs, Umbra, and HawkEye 360; GPS; miniature CubeSats for education and research; and military/defense satellites.

Loading next visibility...
Identifier
61677, 2024-193S
Orbit
LEO
Country
Flag of USUS
Related business
Manufacturer
SpaceX/Seattle
Mission
Operational Commercial Communications
Bus & Motor
STARLINK V2M, Unknown motor
Mass
730 kg wet, ~700 kg dry
Launch date (UTC)
2024-10-26 (2 years ago)
Launch vehicle
FALCON 9
Launch site
Air Force Eastern Test Range (AFETR)
Object type
Payload
Rocket body
Debris
Shape & HBR
Box + 2 Pan, 17.7 m
Radar Cross Section
33.884 m², Large (>1 m²)

Expand to show TLE details & history
Last TLE update: 11 hours ago

TLE from 11 hours ago
0 STARLINK-32323
1 61677U 24193S   26125.44385295  .00031700  00000-0  94533-3 0  9990
2 61677  53.1593 186.8452 0002093 102.8732 257.2504 15.34401378 85224
Epoch: 2026-05-05T10:39Z
TLE epoch observation values (Epoch: 2026-05-05T10:39:08.894Z)
Latitude
-0.00008°
Longitude
163.73947°
Altitude
463.917 km
Speed
7.636 km/s
True Right ascension
12h 27m 22s
True Declination
0° 00' 00"
Sunlit
Object was in full shadow at epoch
Visualization orbit readout
Latitude
Unknown
Longitude
Unknown
Altitude
Unknown
Speed
Unknown
Apparent Right ascension
Unknown
Apparent Declination
Unknown
Sunlit
N/A
Visualization observer readout
Local Sidereal Time
05:23:15
Azimuth
Unknown
Elevation
Unknown
Doppler factor
Unknown
Orbital elements
Apogee altitude
464.388 km
Perigee altitude
461.524 km
Semi-major axis
6,841.093 km
Eccentricity
0.00021
Inclination
53.1593°
RAAN
186.8452°
Arg. of periapsis
102.8732°
True anomaly
257.22701°
Mean anomaly
257.2504°
Eccentric anomaly
257.2387°
Mean motion
3.83579 °/min
Orbital period
93.85 mins
BSTAR
0.00094533
Loading maneuver chart data...
Computing Atmospheric mass density...
Loading historical data...
Loading historical data...
Loading historical data...
Loading historical data...
Loading historical data...
Loading historical data...
Loading historical data...

Documentation

Showing up to 5 results
|